• In Hungary
  • List of Countries
  • For 7 days
  • Water Temperature
  • Satellite Maps
  • Weather Map
  • News
  • Weather Widgets
  • user-avatar
    Login

    Hourly Weather Pulau Batam

    Today, 15 December, Friday

    Time Temperature Precipitation Wind Pressure Humidity
    00:00 +28°C° 0.2 mm 4 mps 753 mmHg 85%
    01:00 +28°C° 0 mm 3 mps 753 mmHg 84%
    02:00 +28°C° 1.1 mm 3 mps 753 mmHg 85%
    03:00 +28°C° 1.1 mm 3 mps 753 mmHg 85%
    04:00 +27°C° 1.1 mm 3 mps 753 mmHg 86%
    05:00 +27°C° 1.2 mm 3 mps 753 mmHg 86%
    06:00 +28°C° 1.2 mm 3 mps 753 mmHg 86%
    07:00 +28°C° 0 mm 3 mps 753 mmHg 85%
    08:00 +29°C° 1.1 mm 3 mps 754 mmHg 81%
    09:00 +29°C° 1.1 mm 3 mps 754 mmHg 78%
    10:00 +30°C° 1.1 mm 3 mps 754 mmHg 75%
    11:00 +31°C° 0.6 mm 3 mps 753 mmHg 72%
    12:00 +32°C° 0.6 mm 2 mps 753 mmHg 68%
    13:00 +35°C° 0 mm 2 mps 753 mmHg 57%
    14:00 +34°C° 0.3 mm 2 mps 753 mmHg 61%
    15:00 +32°C° 0.3 mm 2 mps 752 mmHg 64%
    16:00 +31°C° 0.3 mm 2 mps 752 mmHg 67%
    17:00 +30°C° 1 mm 3 mps 752 mmHg 73%
    18:00 +29°C° 1 mm 3 mps 753 mmHg 78%
    19:00 +28°C° 1 mm 3 mps 753 mmHg 83%
    20:00 +28°C° 0.1 mm 3 mps 753 mmHg 83%
    21:00 +28°C° 0.1 mm 3 mps 754 mmHg 83%
    22:00 +28°C° 0.1 mm 4 mps 754 mmHg 83%
    23:00 +28°C° 0 mm 3 mps 754 mmHg 83%

    Tomorrow, 16 December, Saturday

    Time Temperature Precipitation Wind Pressure Humidity
    00:00 +28°C° 0 mm 3 mps 754 mmHg 84%
    01:00 +28°C° 0 mm 3 mps 754 mmHg 84%
    02:00 +27°C° 0 mm 3 mps 753 mmHg 84%
    03:00 +27°C° 0 mm 3 mps 753 mmHg 85%
    04:00 +27°C° 0 mm 3 mps 753 mmHg 85%
    05:00 +27°C° 0.3 mm 3 mps 753 mmHg 85%
    06:00 +27°C° 0.3 mm 3 mps 754 mmHg 85%
    07:00 +28°C° 0.3 mm 3 mps 754 mmHg 85%
    08:00 +29°C° 0.3 mm 3 mps 754 mmHg 80%
    09:00 +30°C° 0.3 mm 3 mps 754 mmHg 74%
    10:00 +31°C° 0.3 mm 3 mps 755 mmHg 69%
    11:00 +31°C° 0.2 mm 3 mps 754 mmHg 66%
    12:00 +32°C° 0.2 mm 2 mps 754 mmHg 64%
    13:00 +34°C° 0.2 mm 2 mps 754 mmHg 61%
    14:00 +33°C° 0.7 mm 3 mps 753 mmHg 65%
    15:00 +31°C° 0.7 mm 3 mps 753 mmHg 69%
    16:00 +30°C° 0.7 mm 4 mps 752 mmHg 73%
    17:00 +29°C° 0.4 mm 4 mps 752 mmHg 76%
    18:00 +29°C° 0.4 mm 4 mps 753 mmHg 79%
    19:00 +28°C° 0.4 mm 4 mps 753 mmHg 81%
    20:00 +28°C° 0 mm 4 mps 754 mmHg 81%
    21:00 +28°C° 0 mm 4 mps 754 mmHg 81%
    22:00 +28°C° 0 mm 4 mps 755 mmHg 81%
    23:00 +28°C° 0.1 mm 4 mps 755 mmHg 82%

    Day after tomorrow, 17 December, Sunday

    Time Temperature Precipitation Wind Pressure Humidity
    00:00 +28°C° 0.1 mm 4 mps 754 mmHg 82%
    01:00 +28°C° 0.1 mm 4 mps 754 mmHg 83%
    02:00 +28°C° 0.2 mm 4 mps 754 mmHg 83%
    03:00 +27°C° 0.2 mm 4 mps 753 mmHg 83%
    04:00 +27°C° 0.2 mm 5 mps 753 mmHg 84%
    05:00 +28°C° 0.3 mm 4 mps 754 mmHg 83%
    06:00 +28°C° 0.3 mm 4 mps 754 mmHg 83%
    07:00 +28°C° 0.3 mm 4 mps 755 mmHg 82%
    08:00 +29°C° 0.4 mm 5 mps 755 mmHg 78%
    09:00 +30°C° 0.4 mm 5 mps 755 mmHg 74%
    10:00 +32°C° 0.4 mm 5 mps 756 mmHg 69%
    11:00 +32°C° 1 mm 5 mps 755 mmHg 70%
    12:00 +32°C° 1 mm 6 mps 755 mmHg 71%
    13:00 +30°C° 1 mm 6 mps 754 mmHg 72%
    14:00 +30°C° 0.4 mm 6 mps 754 mmHg 71%
    15:00 +30°C° 0.4 mm 6 mps 753 mmHg 69%
    16:00 +30°C° 0.4 mm 6 mps 752 mmHg 68%
    17:00 +30°C° 0 mm 6 mps 753 mmHg 70%
    18:00 +29°C° 0 mm 6 mps 753 mmHg 71%
    19:00 +28°C° 0 mm 6 mps 754 mmHg 73%
    20:00 +28°C° 0 mm 5 mps 754 mmHg 74%
    21:00 +28°C° 0 mm 5 mps 755 mmHg 74%
    22:00 +28°C° 0 mm 5 mps 755 mmHg 75%
    23:00 +28°C° 0.1 mm 5 mps 755 mmHg 77%

    18 December, Monday

    Time Temperature Precipitation Wind Pressure Humidity
    00:00 +28°C° 0.1 mm 5 mps 755 mmHg 78%
    01:00 +28°C° 0.1 mm 5 mps 754 mmHg 80%
    02:00 +27°C° 0.2 mm 5 mps 754 mmHg 81%
    03:00 +27°C° 0.2 mm 5 mps 753 mmHg 82%
    04:00 +27°C° 0.2 mm 5 mps 753 mmHg 83%
    05:00 +27°C° 0.2 mm 5 mps 753 mmHg 82%
    06:00 +27°C° 0.2 mm 5 mps 754 mmHg 81%
    07:00 +27°C° 0.2 mm 5 mps 754 mmHg 80%
    08:00 +28°C° 0.2 mm 6 mps 755 mmHg 75%
    09:00 +29°C° 0.2 mm 6 mps 755 mmHg 71%
    10:00 +30°C° 0.2 mm 6 mps 756 mmHg 66%
    11:00 +32°C° 0.2 mm 6 mps 755 mmHg 64%
    12:00 +33°C° 0.2 mm 6 mps 755 mmHg 62%
    13:00 +33°C° 0.2 mm 6 mps 754 mmHg 60%
    14:00 +33°C° 0 mm 6 mps 753 mmHg 61%
    15:00 +32°C° 0 mm 6 mps 753 mmHg 62%
    16:00 +32°C° 0 mm 6 mps 752 mmHg 63%
    17:00 +30°C° 0 mm 6 mps 753 mmHg 67%
    18:00 +29°C° 0 mm 6 mps 753 mmHg 70%
    19:00 +28°C° 0 mm 5 mps 754 mmHg 74%
    20:00 +28°C° 0 mm 5 mps 754 mmHg 75%
    21:00 +28°C° 0 mm 5 mps 755 mmHg 77%
    22:00 +28°C° 0 mm 5 mps 755 mmHg 78%
    23:00 +28°C° 0 mm 5 mps 755 mmHg 78%

    19 December, Tuesday

    Time Temperature Precipitation Wind Pressure Humidity
    00:00 +28°C° 0 mm 5 mps 754 mmHg 79%
    01:00 +28°C° 0 mm 5 mps 754 mmHg 80%
    02:00 +28°C° 0.1 mm 5 mps 754 mmHg 80%
    03:00 +28°C° 0.1 mm 5 mps 753 mmHg 81%
    04:00 +27°C° 0.1 mm 5 mps 753 mmHg 81%
    05:00 +28°C° 0.2 mm 5 mps 753 mmHg 81%
    06:00 +28°C° 0.2 mm 5 mps 754 mmHg 81%
    07:00 +28°C° 0.2 mm 5 mps 754 mmHg 80%
    08:00 +29°C° 0.1 mm 5 mps 755 mmHg 75%
    09:00 +30°C° 0.1 mm 5 mps 755 mmHg 70%
    10:00 +32°C° 0.1 mm 5 mps 755 mmHg 65%
    11:00 +32°C° 0.2 mm 5 mps 755 mmHg 64%
    12:00 +32°C° 0.2 mm 5 mps 754 mmHg 64%
    13:00 +33°C° 0.2 mm 6 mps 753 mmHg 63%
    14:00 +32°C° 0.6 mm 6 mps 753 mmHg 66%
    15:00 +30°C° 0.6 mm 6 mps 753 mmHg 68%
    16:00 +30°C° 0.6 mm 6 mps 752 mmHg 71%
    17:00 +29°C° 0.5 mm 6 mps 753 mmHg 74%
    18:00 +28°C° 0.5 mm 5 mps 754 mmHg 77%
    19:00 +28°C° 0.5 mm 5 mps 754 mmHg 81%
    20:00 +28°C° 0.2 mm 6 mps 755 mmHg 80%
    21:00 +28°C° 0.2 mm 6 mps 755 mmHg 80%
    22:00 +28°C° 0.2 mm 6 mps 756 mmHg 80%
    23:00 +28°C° 0.1 mm 5 mps 755 mmHg 80%

    20 December, Wednesday

    Time Temperature Precipitation Wind Pressure Humidity
    00:00 +28°C° 0.1 mm 5 mps 755 mmHg 80%
    01:00 +28°C° 0.1 mm 5 mps 754 mmHg 80%
    02:00 +27°C° 0.1 mm 5 mps 754 mmHg 80%
    03:00 +27°C° 0.1 mm 5 mps 753 mmHg 81%
    04:00 +27°C° 0.1 mm 5 mps 753 mmHg 81%
    05:00 +27°C° 0 mm 5 mps 754 mmHg 80%
    06:00 +28°C° 0 mm 5 mps 754 mmHg 80%
    07:00 +28°C° 0 mm 5 mps 754 mmHg 79%
    08:00 +29°C° 0.1 mm 5 mps 755 mmHg 75%
    09:00 +30°C° 0.1 mm 6 mps 755 mmHg 70%
    10:00 +32°C° 0.1 mm 6 mps 755 mmHg 66%
    11:00 +32°C° 0.1 mm 6 mps 754 mmHg 64%
    12:00 +33°C° 0.1 mm 6 mps 754 mmHg 63%
    13:00 +33°C° 0.1 mm 6 mps 753 mmHg 61%
    14:00 +33°C° 0.1 mm 6 mps 753 mmHg 62%
    15:00 +32°C° 0.1 mm 6 mps 752 mmHg 64%
    16:00 +32°C° 0.1 mm 6 mps 752 mmHg 65%
    17:00 +30°C° 0 mm 6 mps 752 mmHg 68%
    18:00 +29°C° 0 mm 6 mps 753 mmHg 72%
    19:00 +28°C° 0 mm 6 mps 753 mmHg 75%
    20:00 +28°C° 0 mm 6 mps 754 mmHg 76%
    21:00 +28°C° 0 mm 6 mps 754 mmHg 76%
    22:00 +28°C° 0 mm 5 mps 754 mmHg 77%
    23:00 +28°C° 0 mm 5 mps 754 mmHg 77%
    Show more